1517529600.08,29537,7.63,72150.3,-7.05,-8.37,-8.25,0,*5B
1517529601.3,29538,7.63,72146.0,-7.05,-8.37,-8.17,0,*55
1517529602.52,29539,7.63,72146.8,-7.05,-8.25,-8.17,0,*57
1517529603.74,29540,7.63,72148.3,-7.05,-8.25,-8.17,0,*59
1517529604.96,29541,7.63,72150.5,-7.05,-8.25,-8.17,0,*58
1517529606.15,29542,7.63,72150.8,-7.03,-8.17,-8.17,0,*5C
1517529607.4,29543,7.63,72148.8,-7.05,-8.25,-8.11,0,*5C
1517529608.62,29544,7.63,72148.5,-7.03,-8.17,-8.03,0,*5F
1517529609.86,29545,7.63,72156.3,-7.03,-8.11,-8.03,0,*58
1517529611.11,29546,7.63,72154.8,-7.03,-8.11,-8.11,0,*58
1517529612.35,29547,7.63,72160.8,-7.03,-8.03,-8.03,0,*59
1517529613.62,29548,7.63,72160.5,-7.05,-8.11,-8.03,0,*53
1517529614.87,29549,7.63,72154.0,-7.03,-8.11,-8.11,0,*57
1517529616.1,29550,7.63,72150.0,-7.03,-8.17,-8.11,0,*59
1517529617.32,29551,7.63,72144.5,-7.03,-8.17,-8.03,0,*5B
1517529618.54,29552,7.63,72144.3,-7.03,-8.25,-8.11,0,*5A
1517529619.76,29553,7.63,72156.0,-7.03,-8.17,-8.11,0,*5A
1517529620.99,29554,7.63,72158.8,-7.03,-8.17,-8.11,0,*5D
1517529622.21,29555,7.63,72160.5,-7.03,-8.25,-8.11,0,*5D
1517529623.43,29556,7.63,72158.0,-7.03,-8.17,-8.11,0,*5F
1517529624.67,29557,7.63,72158.0,-7.05,-8.17,-8.03,0,*5B
1517529625.92,29558,7.63,72160.3,-7.03,-8.11,-8.03,0,*54
1517529627.17,29559,7.63,72156.3,-7.03,-8.11,-7.99,0,*59
1517529628.41,29560,7.63,72160.3,-7.03,-8.03,-7.99,0,*50
1517529629.69,29561,7.63,72152.5,-7.01,-8.07,-8.11,0,*58
1517529630.96,29562,7.63,72152.3,-7.01,-8.11,-7.99,0,*53
1517529632.23,29563,7.63,72152.5,-7.01,-7.99,-7.99,0,*5D
1517529633.49,29564,7.63,72152.3,-7.01,-7.99,-7.95,0,*56
1517529634.76,29565,7.63,72158.3,-7.01,-7.99,-7.99,0,*5B
1517529636.03,29566,7.63,72152.3,-7.01,-8.11,-7.99,0,*57
1517529637.31,29567,7.63,72154.3,-7.01,-8.07,-8.11,0,*5E
1517529638.59,29568,7.63,72154.3,-7.01,-8.11,-8.07,0,*51
1517529639.86,29569,7.63,72154.8,-7.01,-8.11,-8.11,0,*57
1517529641.11,29570,7.63,72156.0,-7.01,-8.21,-8.11,0,*5C
1517529642.35,29571,7.63,72156.3,-7.01,-8.21,-8.11,0,*5D
1517529643.63,29572,7.63,72152.3,-7.01,-8.11,-8.07,0,*5A
1517529644.88,29573,7.63,72152.8,-7.03,-8.11,-8.03,0,*5D
1517529646.12,29574,7.63,72154.5,-7.03,-8.03,-7.91,0,*5D
1517529647.36,29575,7.63,72154.5,-7.03,-8.03,-7.91,0,*5C
1517529648.61,29576,7.63,72152.8,-7.03,-7.99,-7.91,0,*53
1517529649.85,29577,7.63,72152.3,-7.03,-7.91,-7.91,0,*5A
1517529651.12,29578,7.63,72156.3,-7.01,-7.99,-7.95,0,*5B
1517529652.37,29579,7.63,72162.3,-7.03,-8.11,-8.11,0,*54
1517529653.64,29580,7.63,72160.3,-7.01,-8.07,-7.99,0,*58
1517529654.91,29581,7.63,72160.8,-7.01,-7.99,-7.99,0,*51
1517529656.18,29582,7.63,72158.3,-7.01,-7.99,-7.99,0,*52
1517529657.45,29583,7.63,72162.8,-7.01,-8.11,-8.11,0,*53
1517529658.72,29584,7.63,72170.0,-7.01,-8.11,-7.99,0,*5B
1517529659.99,29585,7.63,72168.5,-7.01,-8.07,-7.95,0,*51
1517529661.23,29586,7.63,72170.0,-7.01,-7.87,-7.95,0,*55
1517529662.5,29587,7.63,72164.8,-7.01,-7.95,-7.95,0,*57
1517529663.78,29588,7.63,72162.0,-7.01,-8.07,-8.07,0,*58
1517529665.06,29589,7.63,72162.3,-7.01,-8.07,-8.07,0,*59
1517529666.33,29590,7.63,72164.3,-7.01,-8.11,-8.11,0,*51
1517529667.55,29591,7.63,72164.3,-7.01,-8.21,-8.21,0,*50
1517529668.75,29592,7.63,72174.3,-6.99,-8.21,-8.21,0,*53
1517529670.02,29593,7.63,72174.0,-7.01,-8.11,-8.11,0,*52
1517529671.22,29594,7.63,72174.5,-7.03,-8.17,-8.25,0,*56
1517529672.44,29595,7.63,72174.3,-7.03,-8.17,-8.11,0,*50
1517529673.69,29596,7.63,72170.0,-7.03,-8.11,-8.03,0,*56
1517529674.93,29597,7.63,72166.8,-7.03,-8.03,-8.11,0,*57
1517529676.13,29598,7.63,72164.3,-7.03,-8.17,-8.17,0,*5B
1517529677.35,29599,7.63,72164.8,-7.03,-8.17,-8.11,0,*5C
1517529678.6,29600,7.63,72158.8,-7.03,-8.11,-8.11,0,*59
1517529679.79,29601,7.63,72162.3,-7.03,-8.25,-8.25,0,*58
1517529680.99,29602,7.63,72162.0,-7.03,-8.37,-8.25,0,*58
1517529682.21,29603,7.63,72160.0,-7.01,-8.33,-8.21,0,*5B
1517529683.4,29604,7.63,72160.0,-7.03,-8.25,-8.25,0,*5D
1517529684.6,29605,7.63,72156.0,-7.03,-8.25,-8.17,0,*5D
1517529685.79,29606,7.63,72162.5,-7.03,-8.29,-8.25,0,*53
1517529686.99,29607,7.63,72160.3,-7.03,-8.25,-8.17,0,*5F
1517529688.18,29608,7.63,72162.8,-7.03,-8.17,-8.17,0,*51
1517529689.38,29609,7.63,72162.0,-7.03,-8.25,-8.17,0,*51
1517529690.59,29610,7.63,72164.5,-7.01,-8.33,-8.21,0,*59
1517529691.81,29611,7.63,72164.8,-7.01,-8.25,-8.33,0,*5C
1517529693.02,29612,7.63,72164.8,-7.01,-8.25,-8.33,0,*5F
1517529694.22,29613,7.63,72158.5,-7.03,-8.41,-8.29,0,*55
1517529695.45,29614,7.63,72156.8,-7.05,-8.37,-8.37,0,*5A
1517529696.64,29615,7.63,72156.3,-7.03,-8.41,-8.41,0,*5D
1517529697.87,29616,7.63,72156.3,-7.01,-8.37,-8.37,0,*5C
1517529699.09,29617,7.63,72160.5,-7.01,-8.33,-8.45,0,*5C
1517529700.3,29618,7.63,72160.3,-7.01,-8.33,-8.37,0,*56
1517529701.5,29619,7.63,72156.8,-7.03,-8.29,-8.41,0,*5F
1517529702.69,29620,7.63,72156.3,-7.03,-8.37,-8.41,0,*5A
1517529703.89,29621,7.63,72158.5,-7.03,-8.29,-8.41,0,*54
1517529705.09,29622,7.63,72154.5,-7.03,-8.25,-8.37,0,*5A
1517529706.28,29623,7.63,72150.8,-7.03,-8.29,-8.29,0,*58
1517529707.48,29624,7.63,72146.5,-7.03,-8.25,-8.29,0,*53
1517529708.67,29625,7.63,72146.3,-7.03,-8.25,-8.25,0,*5E
1517529709.87,29626,7.63,72144.8,-7.03,-8.25,-8.17,0,*5C
1517529711.06,29627,7.63,72142.3,-7.03,-8.17,-8.17,0,*5C
1517529712.34,29628,7.63,72142.0,-7.01,-8.11,-8.11,0,*51
1517529713.61,29629,7.63,72142.5,-7.01,-8.11,-7.99,0,*5F
1517529714.89,29630,7.63,72140.8,-7.01,-8.11,-8.07,0,*5F
1517529716.17,29631,7.63,72146.8,-7.01,-8.07,-8.07,0,*59
1517529717.45,29632,7.63,72146.0,-7.01,-7.99,-8.07,0,*52
1517529718.72,29633,7.63,72150.0,-7.01,-8.07,-8.07,0,*5B
1517529720.0,29634,7.63,72140.8,-7.01,-8.11,-7.99,0,*53
1517529721.24,29635,7.63,72140.5,-6.99,-8.11,-7.99,0,*52
1517529722.52,29636,7.63,72136.3,-7.01,-8.11,-7.99,0,*51
1517529723.8,29637,7.63,72144.3,-7.01,-8.11,-8.07,0,*58
1517529725.07,29638,7.63,72140.3,-7.01,-8.11,-7.99,0,*5F
1517529726.32,29639,7.63,72138.3,-7.01,-7.99,-7.87,0,*5E
1517529727.59,29640,7.63,72144.3,-7.01,-8.07,-7.95,0,*5B
1517529728.86,29641,7.63,72146.3,-7.01,-8.07,-7.95,0,*5A
1517529730.13,29642,7.63,72144.8,-7.01,-7.99,-7.99,0,*5D
1517529731.39,29643,7.63,72148.0,-7.01,-7.99,-7.95,0,*50
1517529732.66,29644,7.63,72150.3,-7.01,-8.07,-7.99,0,*53
1517529733.94,29645,7.63,72146.0,-7.01,-8.07,-7.99,0,*52
1517529735.18,29646,7.63,72150.0,-6.99,-7.99,-7.99,0,*59
1517529736.45,29647,7.63,72152.8,-7.01,-7.99,-7.99,0,*58
1517529737.72,29648,7.63,72158.0,-7.01,-8.11,-7.99,0,*58
1517529738.98,29649,7.63,72158.5,-6.99,-8.07,-8.07,0,*56
1517529740.25,29650,7.63,72158.0,-7.01,-8.11,-8.11,0,*5E
1517529741.53,29651,7.63,72162.3,-7.01,-8.07,-8.07,0,*5F
1517529742.81,29652,7.63,72166.5,-7.01,-8.11,-8.11,0,*5C
1517529744.05,29653,7.63,72164.3,-6.99,-8.11,-8.11,0,*5D
1517529745.3,29654,7.63,72166.8,-7.01,-8.11,-8.21,0,*59
1517529746.52,29655,7.63,72170.0,-7.01,-8.25,-8.21,0,*5F
1517529747.71,29656,7.63,72168.5,-6.99,-8.33,-8.33,0,*58
1517529748.91,29657,7.63,72162.8,-6.99,-8.45,-8.37,0,*5C
1517529750.1,29658,7.63,72154.8,-6.99,-8.59,-8.33,0,*5A
1517529751.3,29659,7.63,72152.5,-6.99,-8.45,-8.25,0,*51
1517529752.49,29660,7.63,72150.5,-6.99,-8.45,-8.21,0,*5F
1517529753.71,29661,7.63,72146.5,-7.01,-8.33,-8.21,0,*5F
1517529754.95,29662,7.63,72146.0,-7.01,-8.33,-8.11,0,*5F
1517529756.15,29663,7.63,72146.5,-6.99,-8.25,-8.21,0,*5A
1517529757.36,29664,7.63,72148.8,-7.01,-8.33,-8.33,0,*59
1517529758.58,29665,7.63,72148.3,-7.01,-8.37,-8.37,0,*58
1517529759.83,29666,7.63,72146.0,-7.01,-8.51,-8.59,0,*53
1517529761.06,29667,7.63,72136.0,-7.01,-8.71,-8.89,0,*5D
1517529762.29,29668,7.63,72148.0,-7.01,-8.93,-9.01,0,*5F
1517529763.51,29669,7.63,72154.0,-7.01,-9.05,-9.05,0,*54
1517529764.7,29670,7.63,72154.8,-6.99,-9.19,-9.31,0,*56
1517529765.95,29671,7.63,72152.0,-7.01,-9.45,-9.71,0,*5A
1517529767.18,29672,7.63,72152.0,-7.01,-10.09,-10.15,0,*53
1517529768.42,29673,7.63,72138.8,-7.01,-10.35,-10.27,0,*5C
1517529769.66,29674,7.63,72080.5,-7.01,-10.49,-10.27,0,*50
1517529770.89,29675,7.63,72102.5,-7.01,-10.27,-9.89,0,*65
1517529772.11,29676,7.63,72084.5,-7.01,-10.27,-9.97,0,*69
1517529773.33,29677,7.63,72104.8,-7.01,-10.23,-9.89,0,*63
1517529774.59,29678,7.63,72092.5,-7.01,-10.41,-10.09,0,*58
1517529775.84,29679,7.63,72080.8,-7.01,-10.27,-9.83,0,*63
1517529777.07,29680,7.63,72088.5,-7.01,-10.27,-9.75,0,*6C
1517529778.32,29681,7.63,72092.3,-7.01,-10.23,-9.57,0,*69
1517529779.56,29682,7.63,72112.8,-7.01,-10.01,-9.57,0,*6A
1517529780.79,29683,7.63,72072.0,-7.01,-10.23,-9.75,0,*6B
1517529781.99,29684,7.63,72104.5,-7.03,-10.31,-9.89,0,*6E
1517529783.2,29685,7.63,72098.8,-7.03,-10.45,-10.01,0,*54
1517529784.42,29686,7.63,72108.3,-7.03,-10.31,-10.15,0,*51
1517529785.63,29687,7.63,72134.5,-7.03,-10.31,-10.15,0,*50
1517529786.86,29688,7.63,72112.3,-7.05,-10.45,-10.45,0,*5F
1517529788.13,29689,7.63,72130.8,-7.03,-10.63,-10.63,0,*58
1517529789.34,29690,7.63,72138.5,-7.03,-11.01,-10.97,0,*5E
1517529790.55,29691,7.63,72148.0,-7.03,-11.15,-11.15,0,*51
1517529791.81,29692,7.63,72140.5,-7.05,-11.59,-11.45,0,*59
1517529793.05,29693,7.63,72148.5,-7.03,-11.67,-11.41,0,*57
1517529794.31,29694,7.63,72154.5,-7.03,-11.93,-11.55,0,*5E
1517529795.6,29695,7.63,72150.3,-7.05,-11.93,-11.59,0,*55
1517529796.88,29696,7.63,72152.3,-7.05,-11.97,-11.55,0,*5E
1517529798.14,29697,7.63,72152.8,-7.05,-12.29,-11.81,0,*50
1517529799.37,29698,7.63,72154.5,-7.03,-12.25,-11.59,0,*50
1517529800.63,29699,7.63,72156.5,-7.05,-12.11,-11.45,0,*5D
1517529801.89,29700,7.63,72156.0,-7.05,-12.25,-11.55,0,*5A
1517529803.15,29701,7.63,72158.5,-7.05,-11.93,-11.23,0,*54
1517529804.41,29702,7.63,72164.0,-7.05,-11.85,-11.11,0,*51
1517529805.66,29703,7.63,72166.3,-7.05,-11.81,-11.01,0,*55
1517529806.92,29704,7.63,72168.5,-7.05,-11.73,-10.97,0,*51
1517529808.19,29705,7.63,72168.0,-7.05,-11.45,-10.75,0,*59
1517529809.42,29706,7.63,72170.5,-7.05,-11.11,-10.45,0,*58
1517529810.68,29707,7.63,72170.5,-7.05,-10.71,-10.19,0,*57
1517529811.92,29708,7.63,72166.0,-7.05,-10.57,-10.19,0,*5C
1517529813.18,29709,7.63,72168.5,-7.05,-10.41,-10.05,0,*57
1517529814.38,29710,7.63,72170.5,-7.03,-10.31,-9.93,0,*69
1517529815.61,29711,7.63,72172.0,-7.05,-10.15,-9.67,0,*63
1517529816.85,29712,7.63,72160.8,-7.05,-10.05,-9.57,0,*62
1517529818.1,29713,7.63,72160.3,-7.05,-10.01,-9.45,0,*64
1517529819.34,29714,7.63,72158.5,-7.05,-9.93,-9.37,0,*55
1517529820.56,29715,7.63,72168.0,-7.05,-9.79,-9.19,0,*5C
1517529821.8,29716,7.63,72152.3,-7.05,-9.61,-9.05,0,*5B
1517529823.01,29717,7.63,72140.3,-7.03,-9.57,-8.97,0,*53
1517529824.25,29718,7.63,72154.8,-7.05,-9.57,-9.05,0,*50
1517529825.49,29719,7.63,72132.8,-7.05,-9.57,-8.93,0,*5F
1517529826.75,29720,7.63,72140.8,-7.05,-9.45,-8.81,0,*55
1517529828.02,29721,7.63,72130.5,-7.05,-9.37,-8.81,0,*51
1517529829.22,29722,7.63,72126.8,-7.03,-9.31,-8.85,0,*56
1517529830.44,29723,7.63,72136.5,-7.03,-9.31,-8.81,0,*53
1517529831.63,29724,7.63,72144.0,-7.03,-8.97,-8.75,0,*52
1517529832.85,29725,7.63,72144.8,-7.05,-8.93,-8.67,0,*52
1517529834.08,29726,7.63,72140.5,-7.05,-8.81,-8.67,0,*52
1517529835.29,29727,7.63,72146.8,-7.05,-8.75,-8.55,0,*59
1517529836.51,29728,7.63,72146.3,-7.05,-8.67,-8.63,0,*50
1517529837.7,29729,7.63,72150.8,-7.03,-8.75,-8.55,0,*51
1517529838.91,29730,7.63,72152.0,-7.05,-8.67,-8.55,0,*5C
1517529840.13,29731,7.63,72150.0,-7.05,-8.67,-8.41,0,*58
1517529841.35,29732,7.63,72152.5,-7.05,-8.63,-8.41,0,*5F
1517529842.57,29733,7.63,72144.8,-7.05,-8.63,-8.41,0,*5E
1517529843.78,29734,7.63,72154.0,-7.05,-8.63,-8.55,0,*5C
1517529844.98,29735,7.63,72148.8,-7.03,-8.63,-8.41,0,*5E
1517529846.18,29736,7.63,72144.8,-7.03,-8.55,-8.37,0,*59
1517529847.38,29737,7.63,72140.8,-7.03,-8.55,-8.29,0,*57
1517529848.58,29738,7.63,72140.3,-7.03,-8.41,-8.29,0,*5D
1517529849.78,29739,7.63,72150.5,-7.03,-8.41,-8.37,0,*53
1517529851.0,29740,7.63,72142.5,-7.05,-8.55,-8.41,0,*5F
1517529852.22,29741,7.63,72142.5,-7.03,-8.51,-8.41,0,*5C
1517529853.44,29742,7.63,72138.5,-7.05,-8.63,-8.41,0,*58
1517529854.64,29743,7.63,72142.5,-7.03,-8.63,-8.41,0,*5F
1517529855.84,29744,7.63,72142.8,-7.03,-8.63,-8.29,0,*56
1517529857.06,29745,7.63,72134.8,-7.03,-8.51,-8.29,0,*56
1517529858.29,29746,7.63,72134.5,-7.03,-8.51,-8.37,0,*5A
1517529859.52,29747,7.63,72144.0,-7.05,-8.55,-8.37,0,*59
1517529860.72,29748,7.63,72150.3,-7.03,-8.55,-8.41,0,*51
1517529861.94,29749,7.63,72134.0,-7.05,-8.55,-8.41,0,*56
1517529863.16,29750,7.63,72142.3,-7.03,-8.63,-8.51,0,*5C
1517529864.36,29751,7.63,72134.0,-7.03,-8.55,-8.41,0,*59
1517529865.6,29752,7.63,72134.3,-7.05,-8.63,-8.51,0,*58
1517529866.83,29753,7.63,72132.0,-7.03,-8.63,-8.51,0,*5F
1517529868.07,29754,7.63,72136.8,-7.05,-8.63,-8.51,0,*5E
1517529869.3,29755,7.63,72138.8,-7.03,-8.63,-8.51,0,*59
1517529870.52,29756,7.63,72138.5,-7.03,-8.63,-8.51,0,*5A
1517529871.74,29757,7.63,72136.0,-7.05,-8.63,-8.41,0,*5C
1517529872.96,29758,7.63,72148.3,-7.05,-8.55,-8.41,0,*56
1517529874.18,29759,7.63,72150.0,-7.05,-8.55,-8.41,0,*57
1517529875.43,29760,7.63,72152.3,-7.05,-8.63,-8.51,0,*59
1517529876.65,29761,7.63,72166.0,-7.05,-8.63,-8.41,0,*59
1517529877.85,29762,7.63,72164.3,-7.03,-8.63,-8.41,0,*5C
1517529879.07,29763,7.63,72160.3,-7.05,-8.55,-8.41,0,*5E
1517529880.27,29764,7.63,72160.8,-7.03,-8.55,-8.41,0,*5F
1517529881.47,29765,7.63,72164.0,-7.03,-8.41,-8.37,0,*5A
1517529882.69,29766,7.63,72168.0,-7.05,-8.41,-8.29,0,*50
1517529883.92,29767,7.63,72158.0,-7.03,-8.51,-8.37,0,*59
1517529885.11,29768,7.63,72156.3,-7.03,-8.29,-8.29,0,*56
1517529886.33,29769,7.63,72160.0,-7.05,-8.29,-8.37,0,*5E
1517529887.52,29770,7.63,72162.0,-7.03,-8.29,-8.29,0,*5F
1517529888.72,29771,7.63,72164.0,-7.03,-8.29,-8.25,0,*52
1517529889.93,29772,7.63,72160.0,-7.05,-8.29,-8.25,0,*57
1517529891.15,29773,7.63,72146.3,-7.05,-8.29,-8.25,0,*56
1517529892.37,29774,7.63,72148.5,-7.05,-8.29,-8.37,0,*52
1517529893.59,29775,7.63,72158.3,-7.05,-8.41,-8.37,0,*5D
1517529894.79,29776,7.63,72160.8,-7.03,-8.37,-8.29,0,*56
1517529895.99,29777,7.63,72160.0,-7.03,-8.37,-8.29,0,*57
1517529897.18,29778,7.63,72162.0,-7.03,-8.37,-8.29,0,*58
1517529898.38,29779,7.63,72168.0,-7.03,-8.37,-8.17,0,*54
1517529899.6,29780,7.63,72160.8,-7.05,-8.25,-8.17,0,*57
1517529900.82,29781,7.63,72154.5,-7.05,-8.25,-8.17,0,*56
1517529902.01,29782,7.63,72156.5,-7.03,-8.25,-8.17,0,*53
1517529903.21,29783,7.63,72154.5,-7.03,-8.25,-8.17,0,*52
1517529904.41,29784,7.63,72150.0,-7.03,-8.25,-8.17,0,*55
1517529905.62,29785,7.63,72144.0,-7.05,-8.25,-8.17,0,*52
1517529906.82,29786,7.63,72152.0,-7.03,-8.25,-8.17,0,*57
1517529908.04,29787,7.63,72156.3,-7.05,-8.17,-8.17,0,*51
1517529909.23,29788,7.63,72156.8,-7.03,-8.29,-8.25,0,*54
1517529910.45,29789,7.63,72158.0,-7.05,-8.25,-8.17,0,*5E
1517529911.67,29790,7.63,72148.8,-7.05,-8.25,-8.17,0,*56
1517529912.86,29791,7.63,72154.3,-7.03,-8.25,-8.17,0,*51
1517529914.08,29792,7.63,72148.0,-7.05,-8.25,-8.17,0,*54
1517529915.28,29793,7.63,72152.5,-7.03,-8.25,-8.25,0,*52
1517529916.47,29794,7.63,72156.8,-7.03,-8.29,-8.25,0,*59
1517529917.67,29795,7.63,72154.8,-7.03,-8.17,-8.17,0,*54
1517529918.86,29796,7.63,72154.8,-7.03,-8.17,-8.17,0,*57
1517529920.06,29797,7.63,72150.0,-7.03,-8.17,-8.17,0,*56
1517529921.28,29798,7.63,72154.8,-7.03,-8.17,-8.11,0,*5F
1517529922.5,29799,7.63,72152.5,-7.03,-8.11,-8.17,0,*5E
1517529923.75,29800,7.63,72154.5,-7.05,-8.17,-8.03,0,*54
1517529924.97,29801,7.63,72152.3,-7.03,-8.17,-8.11,0,*50
1517529926.19,29802,7.63,72154.0,-7.03,-8.17,-8.11,0,*53
1517529927.41,29803,7.63,72148.0,-7.03,-8.25,-8.03,0,*50
1517529928.64,29804,7.63,72154.0,-7.03,-8.17,-8.11,0,*55
1517529929.88,29805,7.63,72154.5,-7.03,-8.11,-8.03,0,*51
1517529931.13,29806,7.63,72152.3,-7.03,-8.11,-7.99,0,*5E
1517529932.33,29807,7.63,72156.8,-7.03,-8.17,-8.17,0,*50
1517529933.52,29808,7.63,72158.5,-7.03,-8.25,-8.25,0,*5F
1517529934.74,29809,7.63,72158.3,-7.05,-8.25,-8.25,0,*58
1517529935.94,29810,7.63,72160.5,-7.03,-8.17,-8.25,0,*57
1517529937.13,29811,7.63,72162.5,-7.03,-8.17,-8.17,0,*57
1517529938.33,29812,7.63,72158.3,-7.03,-8.17,-8.17,0,*54
1517529939.57,29813,7.63,72158.8,-7.03,-8.03,-8.11,0,*56
1517529940.81,29814,7.63,72158.0,-7.03,-8.03,-8.03,0,*52
1517529942.08,29815,7.63,72158.3,-7.05,-8.03,-7.99,0,*59
1517529943.32,29816,7.63,72162.5,-7.03,-7.99,-7.99,0,*50
1517529944.56,29817,7.63,72160.5,-7.03,-8.03,-7.99,0,*5D
1517529945.8,29818,7.63,72162.3,-7.03,-8.03,-8.03,0,*5E
1517529947.04,29819,7.63,72160.8,-7.03,-8.03,-7.91,0,*5B
1517529948.29,29820,7.63,72160.8,-7.03,-8.03,-7.91,0,*51
1517529949.55,29821,7.63,72156.3,-7.05,-8.03,-8.03,0,*52
1517529950.79,29822,7.63,72154.0,-7.03,-8.03,-7.91,0,*53
1517529952.06,29823,7.63,72162.0,-7.01,-7.95,-7.95,0,*54
1517529953.33,29824,7.63,72158.0,-7.01,-7.99,-7.99,0,*53
1517529954.6,29825,7.63,72158.0,-7.01,-7.99,-8.07,0,*5A
1517529955.88,29826,7.63,72156.3,-7.01,-8.07,-8.07,0,*51
1517529957.13,29827,7.63,72156.0,-6.99,-7.99,-8.07,0,*58
1517529958.4,29828,7.63,72158.0,-7.01,-7.99,-7.99,0,*5F
1517529959.67,29829,7.63,72152.5,-7.01,-7.99,-7.95,0,*52
1517529960.92,29830,7.63,72152.8,-7.01,-7.95,-7.87,0,*55
1517529962.18,29831,7.63,72154.5,-7.01,-7.95,-7.95,0,*57
1517529963.45,29832,7.63,72150.3,-7.01,-7.95,-7.95,0,*54
1517529964.7,29833,7.63,72148.8,-7.01,-7.95,-7.87,0,*56
1517529965.94,29834,7.63,72152.5,-7.01,-7.95,-7.87,0,*51
1517529967.19,29835,7.63,72152.8,-7.01,-7.99,-7.87,0,*5C
1517529968.46,29836,7.63,72154.0,-7.01,-7.95,-7.95,0,*50
1517529969.72,29837,7.63,72154.5,-7.01,-7.99,-7.95,0,*5D
1517529970.99,29838,7.63,72154.0,-7.01,-7.95,-7.99,0,*52
1517529972.26,29839,7.63,72154.8,-7.01,-7.95,-7.95,0,*5F
1517529973.51,29840,7.63,72142.8,-6.99,-8.07,-8.07,0,*51
1517529974.78,29841,7.63,72150.8,-7.01,-7.99,-7.99,0,*50
1517529976.04,29842,7.63,72150.8,-6.99,-8.07,-8.07,0,*53
1517529977.28,29843,7.63,72158.8,-6.99,-7.99,-7.99,0,*52
1517529978.56,29844,7.63,72150.5,-7.01,-8.07,-8.07,0,*55
1517529979.83,29845,7.63,72154.5,-7.01,-8.07,-7.99,0,*5C
1517529981.11,29846,7.63,72162.8,-7.01,-8.07,-7.99,0,*5F
1517529982.35,29847,7.63,72162.0,-6.99,-7.99,-7.95,0,*5A
1517529983.62,29848,7.63,72166.5,-7.01,-7.99,-7.99,0,*59
1517529984.9,29849,7.63,72174.8,-7.01,-8.07,-8.07,0,*58
1517529986.18,29850,7.63,72170.0,-7.01,-8.07,-8.07,0,*50
1517529987.43,29851,7.63,72170.5,-7.01,-8.11,-8.21,0,*52
1517529988.68,29852,7.63,72166.3,-7.01,-8.07,-8.21,0,*56
1517529989.95,29853,7.63,72156.8,-7.01,-8.11,-8.11,0,*53
1517529991.19,29854,7.63,72168.0,-7.01,-8.21,-8.11,0,*57
1517529992.44,29855,7.63,72174.0,-7.01,-8.07,-8.21,0,*51
1517529993.72,29856,7.63,72174.8,-7.01,-8.11,-8.11,0,*56
1517529994.99,29857,7.63,72172.0,-7.01,-8.07,-8.11,0,*50
1517529996.26,29858,7.63,72172.3,-7.01,-8.11,-8.11,0,*58
1517529997.51,29859,7.63,72170.3,-7.01,-8.21,-8.11,0,*5A
1517529998.75,29860,7.63,72168.0,-7.01,-8.21,-8.11,0,*50
1517530000.0,29861,7.63,72168.8,-7.01,-8.11,-8.21,0,*51
1517530001.24,29862,7.63,72168.8,-6.99,-7.99,-7.99,0,*51
1517530002.52,29863,7.63,72168.3,-7.01,-8.11,-8.11,0,*50
1517530003.79,29864,7.69,72168.8,-7.01,-8.07,-8.11,0,*50
1517530005.07,29865,7.63,72168.3,-7.01,-8.07,-8.07,0,*56
1517530006.35,29866,7.69,72168.5,-7.01,-8.07,-8.07,0,*55
1517530007.61,29867,7.63,72172.3,-6.99,-8.07,-8.07,0,*54
1517530008.88,29868,7.63,72168.3,-7.01,-8.07,-8.11,0,*5C
1517530010.11,29869,7.63,72168.8,-6.99,-8.07,-8.21,0,*5E
1517530011.38,29870,7.63,72174.0,-7.01,-8.07,-8.11,0,*55
1517530012.57,29871,7.63,72174.0,-6.99,-8.21,-8.25,0,*57
1517530013.79,29872,7.63,72166.3,-7.01,-8.25,-8.33,0,*57
1517530014.98,29873,7.63,72166.5,-6.99,-8.25,-8.33,0,*56
1517530016.17,29874,7.63,72166.5,-6.99,-8.21,-8.33,0,*55
1517530017.35,29875,7.63,72164.5,-6.99,-8.33,-8.33,0,*57
1517530018.57,29876,7.63,72170.0,-7.01,-8.33,-8.37,0,*50
1517530019.79,29877,7.63,72170.3,-7.01,-8.33,-8.37,0,*51
1517530020.98,29878,7.63,72164.0,-6.99,-8.25,-8.33,0,*5D
1517530022.2,29879,7.63,72162.0,-7.01,-8.25,-8.33,0,*5C
1517530023.39,29880,7.69,72166.0,-6.99,-8.33,-8.37,0,*59
1517530024.59,29881,7.69,72168.3,-6.99,-8.33,-8.37,0,*58
1517530025.8,29882,7.63,72168.3,-7.01,-8.33,-8.25,0,*58
1517530027.01,29883,7.63,72162.3,-7.01,-8.25,-8.33,0,*59
1517530028.2,29884,7.63,72160.5,-6.99,-8.25,-8.33,0,*5E
1517530029.41,29885,7.63,72158.5,-7.01,-8.33,-8.33,0,*58
1517530030.6,29886,7.63,72160.3,-6.99,-8.33,-8.25,0,*5C
1517530031.82,29887,7.69,72160.3,-7.01,-8.37,-8.33,0,*5E
1517530033.03,29888,7.63,72164.3,-7.01,-8.37,-8.33,0,*51
1517530034.25,29889,7.63,72156.3,-7.01,-8.45,-8.25,0,*52
1517530035.46,29890,7.69,72156.3,-7.01,-8.33,-8.33,0,*5C
1517530036.67,29891,7.63,72150.3,-7.01,-8.33,-8.33,0,*5D
1517530037.89,29892,7.63,72150.5,-7.01,-8.25,-8.33,0,*59
1517530039.13,29893,7.63,72148.3,-7.01,-8.33,-8.11,0,*5F
1517530040.35,29894,7.63,72148.5,-6.99,-8.25,-8.11,0,*5F
1517530041.58,29895,7.69,72150.0,-6.99,-8.21,-8.07,0,*5D
1517530042.77,29896,7.63,72150.0,-6.99,-8.21,-8.21,0,*5A
1517530043.97,29897,7.69,72150.8,-6.99,-8.25,-8.21,0,*5F
1517530045.22,29898,7.63,72150.5,-7.01,-8.25,-8.11,0,*53
1517530046.41,29899,7.69,72154.8,-6.99,-8.25,-8.21,0,*51
1517530047.66,29900,7.63,72142.5,-7.01,-8.25,-8.11,0,*53
1517530048.87,29901,7.69,72146.5,-7.01,-8.33,-8.21,0,*56
1517530050.1,29902,7.63,72142.8,-7.01,-8.25,-8.21,0,*52
1517530051.29,29903,7.63,72136.8,-6.99,-8.37,-8.25,0,*54
1517530052.51,29904,7.63,72142.0,-7.01,-8.33,-8.21,0,*53
1517530053.72,29905,7.63,72134.8,-7.01,-8.33,-8.25,0,*56
1517530054.91,29906,7.63,72142.0,-6.99,-8.33,-8.25,0,*55
1517530056.13,29907,7.63,72138.0,-6.99,-8.21,-8.11,0,*50
1517530057.4,29908,7.63,72130.5,-7.01,-8.11,-8.11,0,*5C
1517530058.68,29909,7.69,72134.3,-7.01,-8.11,-8.11,0,*5D
1517530059.95,29910,7.63,72140.3,-7.01,-8.11,-8.11,0,*55
1517530061.19,29911,7.63,72142.3,-7.01,-8.21,-8.11,0,*57
1517530062.44,29912,7.63,72142.8,-7.01,-8.21,-8.11,0,*54
1517530063.69,29913,7.63,72140.0,-7.01,-8.11,-8.21,0,*55
1517530064.91,29914,7.63,72138.5,-6.99,-8.11,-8.21,0,*52
1517530066.13,29915,7.63,72136.5,-7.01,-8.21,-8.21,0,*50
1517530067.35,29916,7.63,72124.8,-7.01,-8.21,-8.21,0,*53
1517530068.57,29917,7.63,72134.8,-7.01,-8.25,-8.21,0,*56
1517530069.79,29918,7.63,72142.0,-7.01,-8.33,-8.21,0,*5E
1517530071.0,29919,7.63,72130.0,-7.01,-8.33,-8.33,0,*5C
1517530072.22,29920,7.63,72128.0,-7.01,-8.37,-8.25,0,*55
1517530073.4,29921,7.63,72124.5,-6.99,-8.33,-8.33,0,*57
1517530074.62,29922,7.63,72118.0,-7.01,-8.33,-8.37,0,*50
1517530075.85,29923,7.63,72110.5,-7.01,-8.45,-8.37,0,*50
1517530077.05,29924,7.63,72120.0,-6.99,-8.45,-8.37,0,*57
1517530078.27,29925,7.63,72148.8,-7.01,-8.37,-8.45,0,*56
1517530079.49,29926,7.63,72118.0,-7.01,-8.59,-8.63,0,*59
1517530080.71,29927,7.69,72108.8,-7.01,-8.71,-8.71,0,*51
1517530081.96,29928,7.63,72108.3,-7.01,-8.81,-8.89,0,*56
1517530083.2,29929,7.63,72126.0,-7.01,-9.19,-9.15,0,*53
1517530084.45,29930,7.63,72130.0,-6.99,-9.45,-9.41,0,*53
1517530085.71,29931,7.69,72136.3,-7.01,-9.57,-9.53,0,*52
1517530086.98,29932,7.69,72138.5,-7.01,-9.61,-9.61,0,*55
1517530088.2,29933,7.69,72132.0,-6.99,-10.09,-9.83,0,*6E
1517530089.44,29934,7.63,72130.5,-6.99,-10.41,-10.15,0,*52
1517530090.65,29935,7.63,72120.8,-6.99,-10.85,-10.15,0,*5B
1517530091.87,29936,7.63,72116.0,-7.03,-11.01,-10.27,0,*56
1517530093.13,29937,7.63,72108.5,-7.01,-10.67,-9.97,0,*67
1517530094.37,29938,7.69,72114.3,-7.01,-10.53,-9.61,0,*66
1517530095.63,29939,7.63,72112.5,-7.01,-10.27,-9.53,0,*65
1517530096.84,29940,7.63,72124.5,-7.01,-9.89,-9.27,0,*54
1517530098.08,29941,7.69,72134.3,-7.01,-9.61,-9.05,0,*53
1517530099.32,29942,7.63,72136.8,-7.01,-9.53,-9.01,0,*55
1517530100.56,29943,7.63,72136.3,-7.01,-9.27,-8.81,0,*5E
1517530101.78,29944,7.63,72138.5,-7.01,-9.05,-8.75,0,*52
1517530103.03,29945,7.63,72140.3,-7.01,-8.89,-8.81,0,*5D
1517530104.26,29946,7.69,72144.8,-7.01,-8.93,-8.93,0,*56
1517530105.5,29947,7.63,72142.3,-7.01,-8.93,-9.15,0,*58
1517530106.78,29948,7.69,72144.5,-7.01,-9.41,-9.45,0,*5C
1517530108.05,29949,7.63,72144.8,-7.01,-9.45,-9.57,0,*5A
1517530109.3,29950,7.63,72130.5,-7.01,-9.53,-10.01,0,*6E
1517530110.53,29951,7.63,72136.5,-7.01,-10.09,-10.53,0,*5F
1517530111.79,29952,7.63,72136.8,-7.01,-10.27,-10.67,0,*57
1517530113.02,29953,7.63,72146.5,-7.01,-10.27,-10.57,0,*55
1517530114.26,29954,7.69,72150.3,-7.01,-10.01,-10.35,0,*52
1517530115.5,29955,7.69,72154.5,-7.01,-9.57,-9.97,0,*58
1517530116.74,29956,7.63,72140.3,-7.01,-9.53,-9.89,0,*50